Orbital Elements at Epoch 2459200.5 (2020-Dec-17.0) TDB
Reference: JPL 23 (heliocentric ecliptic J2000)
Element | Value | Uncertainty (1-sigma) | Units |
e | .07173787651437538 | 4.1273e-08 | |
a | 2.809562735598497 | 2.0115e-08 | au |
q | 2.608010671012742 | 1.2124e-07 | au |
i | 6.557960312871307 | 5.7377e-06 | deg |
node | 315.1727983270794 | 3.3321e-05 | deg |
peri | 244.7592795487835 | 5.0734e-05 | deg |
M | 9.859433405589872 | 3.8521e-05 | deg |
tp | 2459153.390772239606 (2020-Oct-30.89077224) | 0.00018393 | TDB |
period | 1720.111216951537 4.71 | 1.8473e-05 5.058e-08 | d yr |
n | .2092887927549296 | 2.2476e-09 | deg/d |
Q | 3.011114800184253 | 2.1558e-08 | au |
|
| | Orbit Determination Parameters
Additional Information
|